[[{"header":{"parameterUnit":"m.s-1","parameterCategory":1,"la1":30.2991,"la2":30.254,"lo1":-89.0895,"lo2":-89.0444,"dy":0.0017,"dx":0.0017,"nx":28,"ny":28,"refTime":"2024-08-02T21:00:00:Z","depth":0,"parameterNumber":2,"parameterNumberName":"U-component_of_WINDS"},"data":[0,0,0,0,0,0,0,0,0,0,0,0,0,0,0,0,0,0,0,0,0,0,0,0,0,0,0,0,0,0,0,0,0,0,0,0,0,0,0,0,0,0,0,0,0,0,0,0,0,0,0,0,0,0,0,0,0,0,0.3293,0.3292,0,0.3238,0.3238,0.3237,0.317,0.3169,0.3168,0.3167,0.3109,0.3109,0.3108,0,0,0,0,0,0,0,0,0,0,0,0,0,0.3337,0.3337,0.3293,0.3292,0.3292,0.3239,0.3238,0.3237,0.317,0.3169,0.3168,0.3166,0.311,0.3109,0.3108,0,0,0,0,0,0,0,0,0,0,0,0,0,0.3304,0.3337,0.3293,0.3252,0.3248,0.3239,0.3238,0.3237,0.317,0.3169,0.3167,0.3166,0.311,0.3109,0.3108,0.3135,0,0,0.3106,0.3105,0,0,0,0,0,0,0,0,0.3306,0.3302,0.3259,0.3255,0.325,0.3209,0.3232,0.3203,0.3171,0.32,0.3167,0.3165,0.3144,0.314,0.3133,0.3132,0.313,0.3106,0.3105,0.3105,0.3105,0,0,0,0,0,0,0,0.3308,0.3304,0.3271,0.3258,0.3253,0.3236,0.3229,0.3226,0.3181,0.3197,0.3192,0.3187,0.3141,0.3134,0.3132,0.3129,0.3106,0.3105,0.3105,0.3104,0.3147,0.3148,0,0,0,0,0,0,0.3317,0.3307,0.3273,0.327,0.3275,0.3236,0.3229,0.3224,0.3181,0.3173,0.3188,0.3184,0.3137,0.3133,0.3129,0.3158,0.3105,0.3104,0.3104,0.3145,0.3147,0.3149,0,0,0,0,0,0,0.3318,0.3315,0.3275,0.3287,0.3281,0.3237,0.3232,0.3224,0.3217,0.3174,0.3166,0.3189,0.3135,0.313,0.3134,0.3155,0.3104,0.3103,0.3143,0.3146,0.3148,0.3215,0,0,0,0,0,0,0.332,0.3316,0.3326,0.3288,0.328,0.3282,0.3233,0.3224,0.3216,0.321,0.3173,0.3166,0.3134,0.3136,0.3133,0.3153,0.3102,0.3141,0.3144,0.3147,0.3211,0.3219,0.3227,0,0,0,0,0,0.3322,0.3346,0.3326,0.3323,0.3292,0.3283,0.3279,0.3241,0.3218,0.3227,0.32,0.3167,0.3153,0.3137,0.3133,0.3153,0.314,0.3144,0.3147,0.3207,0.3218,0.3227,0,0,0,0,0,0,0.3387,0.334,0.3318,0.3331,0.3312,0.3272,0.3282,0.3254,0.324,0.3235,0.3189,0.3181,0.3191,0.3172,0.3155,0.3176,0.3142,0.3145,0.3188,0.3198,0.3206,0.321,0.3102,0,0,0,0,0,0.3403,0.34,0.3359,0.3375,0.3366,0.3327,0.3321,0.3294,0.3272,0.3263,0.3236,0.3215,0.3206,0.3201,0.319,0.3208,0.3199,0.3219,0.3228,0.3234,0.3238,0.3245,0.3254,0.3161,0.3161,0.3161,0,0,0.3436,0.341,0.3411,0.3387,0.3369,0.3367,0.332,0.3319,0.3317,0.3263,0.3265,0.3244,0.3218,0.3229,0.3232,0.3214,0.3261,0.3239,0.3245,0.3244,0.325,0.3259,0.3267,0.3163,0.3163,0.3163,0,0,0.3495,0.3475,0.3486,0.3469,0.3442,0.3415,0.3418,0.3382,0.3367,0.3369,0.3328,0.3324,0.3309,0.3292,0.3282,0.3335,0.3304,0.3332,0.3374,0.3383,0.339,0.3396,0.3415,0.3422,0.3336,0.3336,0.3336,0,0.3539,0.3534,0.3495,0.3497,0.3488,0.3439,0.345,0.3435,0.3406,0.34,0.338,0.3361,0.3339,0.3346,0.3359,0.3352,0.3353,0.3336,0.3392,0.3398,0.3403,0.3421,0.3428,0.334,0.3339,0.3339,0.3338,0,0.359,0.3587,0.3599,0.3573,0.3565,0.3571,0.3532,0.3529,0.3503,0.3478,0.348,0.3454,0.3437,0.3436,0.341,0.3439,0.3428,0.3401,0.3365,0.3416,0.3432,0.3438,0.3345,0.3344,0.3342,0.3342,0,0,0.3688,0.364,0.3645,0.3633,0.36,0.3597,0.3601,0.3585,0.3583,0.3565,0.3567,0.3556,0.353,0.3518,0.349,0.3497,0.3541,0.3469,0.3468,0.3483,0.3571,0.3591,0.36,0.3521,0.3522,0.3523,0.3573,0,0.3741,0.3745,0.371,0.3724,0.3721,0.3675,0.3679,0.3659,0.3636,0.363,0.3604,0.3597,0.3564,0.3557,0.3562,0.3535,0.3558,0.3531,0.3521,0.3522,0.3529,0.3608,0.3629,0.3678,0.3579,0.358,0.358,0,0.3802,0.3788,0.3802,0.3769,0.3766,0.377,0.3753,0.3748,0.3724,0.3707,0.3694,0.3662,0.3663,0.3629,0.363,0.3612,0.3606,0.3592,0.3593,0.3591,0.3554,0.3607,0.3693,0.37,0.3589,0.3589,0.3588,0,0.3873,0.3857,0.3863,0.3854,0.3815,0.3819,0.3803,0.3778,0.3771,0.3755,0.375,0.3735,0.3726,0.3715,0.368,0.3658,0.3685,0.3648,0.367,0.3671,0.3677,0.3677,0.3763,0.3674,0.3674,0.3674,0.3674,0,0.3935,0.3945,0.3894,0.3898,0.3909,0.3868,0.3879,0.3858,0.3836,0.3835,0.3794,0.3794,0.3747,0.3741,0.3714,0.3718,0.3715,0.3701,0.3693,0.3704,0.3706,0.37,0.3695,0.3676,0.3675,0.3675,0.3675,0,0.4015,0.3981,0.3985,0.3949,0.394,0.3949,0.3917,0.3919,0.3894,0.3892,0.389,0.385,0.3841,0.3805,0.3787,0.3769,0.3782,0.3768,0.3791,0.3786,0.381,0.3808,0.3894,0.3904,0.3809,0.381,0.3811,0,0.4057,0.4064,0.4028,0.4025,0.4011,0.4006,0.3998,0.3958,0.3952,0.3926,0.3931,0.3919,0.3907,0.3895,0.3864,0.385,0.3835,0.3866,0.3833,0.3844,0.3835,0.3835,0.3836,0.3873,0.3875,0.3876,0.3877,0,0.4135,0.4118,0.4109,0.4095,0.4087,0.4074,0.4058,0.4057,0.4013,0.4008,0.3999,0.399,0.3972,0.396,0.3942,0.3924,0.3893,0.3887,0.3892,0.3903,0.3916,0.3909,0.381,0.3886,0.3885,0.3884,0.3883,0.3883,0.4197,0.4201,0.4177,0.4168,0.4152,0.4138,0.4138,0.4114,0.4105,0.4088,0.4065,0.4059,0.4035,0.4006,0.3992,0.3986,0.3968,0.3975,0.3976,0.3978,0.3984,0.3917,0.3982,0.3982,0.3982,0.3981,0.3981,0,0.4273,0.4255,0.4248,0.4227,0.422,0.4192,0.4173,0.4169,0.4165,0.4145,0.4135,0.4124,0.4113,0.4082,0.4067,0.4068,0.4054,0.4066,0.4065,0.4062,0.4,0.3998,0.4078,0.4078,0.4078,0.4078,0.4078,0.4078,0.4312,0.4317,0.4298,0.4295,0.4276,0.4271,0.4262,0.4249,0.4233,0.4223,0.4214,0.4194,0.417,0.4153,0.4141,0.4132,0.4129,0.4146,0.4132,0.4075,0.4066,0.4057,0.4055,0.4145,0.4145,0.4194,0.4194,0.4194]},{"header":{"parameterUnit":"m.s-1","parameterCategory":1,"la1":30.2991,"la2":30.254,"lo1":-89.0895,"lo2":-89.0444,"dy":0.0017,"dx":0.0017,"nx":28,"ny":28,"refTime":"2024-08-02T21:00:00:Z","depth":0,"parameterNumber":3,"parameterNumberName":"V-component_of_WINDS"},"data":[0,0,0,0,0,0,0,0,0,0,0,0,0,0,0,0,0,0,0,0,0,0,0,0,0,0,0,0,0,0,0,0,0,0,0,0,0,0,0,0,0,0,0,0,0,0,0,0,0,0,0,0,0,0,0,0,0,0,-0.5186,-0.5186,0,-0.5198,-0.5198,-0.5198,-0.5211,-0.5212,-0.5212,-0.5212,-0.5224,-0.5224,-0.5224,0,0,0,0,0,0,0,0,0,0,0,0,0,-0.5175,-0.5175,-0.5186,-0.5186,-0.5186,-0.5198,-0.5198,-0.5198,-0.5211,-0.5212,-0.5212,-0.5212,-0.5224,-0.5224,-0.5224,0,0,0,0,0,0,0,0,0,0,0,0,0,-0.5182,-0.5175,-0.5186,-0.5194,-0.5195,-0.5198,-0.5198,-0.5198,-0.5211,-0.5212,-0.5212,-0.5212,-0.5224,-0.5224,-0.5224,-0.5219,0,0,-0.5225,-0.5225,0,0,0,0,0,0,0,0,-0.5182,-0.5183,-0.5193,-0.5193,-0.5194,-0.5203,-0.5198,-0.5205,-0.5211,-0.5205,-0.5212,-0.5212,-0.5217,-0.5217,-0.5219,-0.522,-0.522,-0.5225,-0.5225,-0.5225,-0.5225,0,0,0,0,0,0,0,-0.5181,-0.5182,-0.519,-0.5193,-0.5194,-0.5197,-0.5199,-0.52,-0.5209,-0.5206,-0.5207,-0.5208,-0.5217,-0.5219,-0.5219,-0.522,-0.5225,-0.5225,-0.5225,-0.5225,-0.5219,-0.5219,0,0,0,0,0,0,-0.518,-0.5182,-0.519,-0.5191,-0.5189,-0.5197,-0.5199,-0.52,-0.5209,-0.5211,-0.5208,-0.5208,-0.5218,-0.5219,-0.522,-0.5215,-0.5225,-0.5225,-0.5225,-0.5219,-0.5219,-0.5219,0,0,0,0,0,0,-0.5179,-0.518,-0.5189,-0.5187,-0.5188,-0.5197,-0.5198,-0.52,-0.5202,-0.5211,-0.5212,-0.5207,-0.5219,-0.522,-0.522,-0.5216,-0.5225,-0.5225,-0.5219,-0.5219,-0.5219,-0.5205,0,0,0,0,0,0,-0.5179,-0.518,-0.5178,-0.5186,-0.5188,-0.5189,-0.5198,-0.52,-0.5202,-0.5203,-0.5211,-0.5212,-0.5219,-0.5219,-0.522,-0.5216,-0.5225,-0.522,-0.5219,-0.5219,-0.5206,-0.5204,-0.5203,0,0,0,0,0,-0.5179,-0.5173,-0.5178,-0.5179,-0.5186,-0.5188,-0.5189,-0.5197,-0.5202,-0.52,-0.5206,-0.5212,-0.5216,-0.5219,-0.522,-0.5216,-0.522,-0.5219,-0.5219,-0.5207,-0.5205,-0.5203,0,0,0,0,0,0,-0.5164,-0.5175,-0.518,-0.5177,-0.5182,-0.5191,-0.5188,-0.5195,-0.5198,-0.5199,-0.5208,-0.521,-0.5209,-0.5213,-0.5215,-0.5213,-0.5219,-0.5219,-0.521,-0.5208,-0.5206,-0.5205,-0.5226,0,0,0,0,0,-0.516,-0.5161,-0.5171,-0.5168,-0.517,-0.5179,-0.518,-0.5186,-0.5191,-0.5193,-0.5199,-0.5204,-0.5206,-0.5207,-0.521,-0.5207,-0.5209,-0.5205,-0.5204,-0.5202,-0.5202,-0.5201,-0.5199,-0.5216,-0.5216,-0.5217,0,0,-0.5153,-0.5159,-0.5159,-0.5165,-0.5169,-0.517,-0.518,-0.5181,-0.5182,-0.5193,-0.5193,-0.5198,-0.5204,-0.5203,-0.5202,-0.5206,-0.5198,-0.5202,-0.5201,-0.52,-0.52,-0.5199,-0.5197,-0.5216,-0.5216,-0.5216,0,0,-0.514,-0.5145,-0.5143,-0.5147,-0.5154,-0.516,-0.516,-0.5168,-0.5172,-0.5172,-0.5181,-0.5183,-0.5187,-0.5191,-0.5193,-0.5184,-0.519,-0.5185,-0.5176,-0.5175,-0.5174,-0.5173,-0.517,-0.5168,-0.5184,-0.5184,-0.5184,0,-0.5129,-0.5131,-0.5141,-0.5141,-0.5144,-0.5155,-0.5153,-0.5157,-0.5164,-0.5166,-0.517,-0.5176,-0.5181,-0.5181,-0.5179,-0.5181,-0.5181,-0.5183,-0.5174,-0.5173,-0.5172,-0.5168,-0.5167,-0.5183,-0.5183,-0.5183,-0.5183,0,-0.5119,-0.512,-0.5118,-0.5125,-0.5128,-0.5127,-0.5137,-0.5138,-0.5144,-0.515,-0.5151,-0.5158,-0.5162,-0.5163,-0.5168,-0.5164,-0.5166,-0.5172,-0.5178,-0.5169,-0.5166,-0.5165,-0.5182,-0.5182,-0.5183,-0.5183,0,0,-0.5095,-0.5109,-0.5107,-0.5111,-0.512,-0.5122,-0.5122,-0.5127,-0.5128,-0.5133,-0.5134,-0.5138,-0.5143,-0.5146,-0.5153,-0.5152,-0.5145,-0.5158,-0.5159,-0.5155,-0.5141,-0.5136,-0.5134,-0.515,-0.5149,-0.5149,-0.514,0,-0.5083,-0.5084,-0.5093,-0.5092,-0.5093,-0.5105,-0.5106,-0.5111,-0.5117,-0.512,-0.5127,-0.5129,-0.5137,-0.5139,-0.5139,-0.5146,-0.5142,-0.5147,-0.515,-0.515,-0.5147,-0.5133,-0.5127,-0.5118,-0.5139,-0.5139,-0.5139,0,-0.5069,-0.5073,-0.5072,-0.5082,-0.5083,-0.5084,-0.5089,-0.5092,-0.5099,-0.5104,-0.5108,-0.5116,-0.5117,-0.5124,-0.5127,-0.513,-0.5132,-0.5136,-0.5136,-0.5136,-0.5143,-0.5132,-0.5116,-0.5114,-0.5137,-0.5137,-0.5137,0,-0.5051,-0.5057,-0.5058,-0.5061,-0.5072,-0.5072,-0.5077,-0.5085,-0.5088,-0.5093,-0.5095,-0.51,-0.5103,-0.5108,-0.5117,-0.5121,-0.5118,-0.5126,-0.5122,-0.5122,-0.512,-0.512,-0.5103,-0.5123,-0.5123,-0.5123,-0.5123,0,-0.5036,-0.5035,-0.505,-0.505,-0.5049,-0.5061,-0.506,-0.5066,-0.5073,-0.5074,-0.5085,-0.5087,-0.5099,-0.5102,-0.511,-0.5111,-0.5112,-0.5116,-0.5118,-0.5115,-0.5114,-0.5115,-0.5116,-0.5122,-0.5122,-0.5123,-0.5123,0,-0.5015,-0.5026,-0.5027,-0.5038,-0.5041,-0.504,-0.505,-0.5051,-0.5059,-0.5061,-0.5062,-0.5074,-0.5078,-0.5088,-0.5095,-0.51,-0.5099,-0.5103,-0.5097,-0.5098,-0.5093,-0.5093,-0.5076,-0.5075,-0.5096,-0.5095,-0.5095,0,-0.5005,-0.5004,-0.5016,-0.5018,-0.5023,-0.5026,-0.5029,-0.5041,-0.5044,-0.5053,-0.5053,-0.5058,-0.5063,-0.507,-0.5079,-0.5085,-0.5088,-0.5082,-0.5089,-0.5086,-0.5088,-0.5087,-0.5087,-0.508,-0.508,-0.508,-0.5079,0,-0.4985,-0.499,-0.4994,-0.5001,-0.5004,-0.501,-0.5016,-0.5017,-0.503,-0.5033,-0.5038,-0.5042,-0.505,-0.5055,-0.5062,-0.5068,-0.5076,-0.5077,-0.5077,-0.5073,-0.5069,-0.5071,-0.5092,-0.5077,-0.5078,-0.5078,-0.5078,-0.5078,-0.4968,-0.4968,-0.4977,-0.4982,-0.4988,-0.4994,-0.4995,-0.5004,-0.5008,-0.5015,-0.5022,-0.5027,-0.5035,-0.5046,-0.5051,-0.5055,-0.5059,-0.5058,-0.5058,-0.5057,-0.5056,-0.5069,-0.5057,-0.5057,-0.5057,-0.5057,-0.5057,0,-0.4948,-0.4955,-0.4959,-0.4968,-0.4972,-0.498,-0.4988,-0.499,-0.4994,-0.5002,-0.5006,-0.5013,-0.5018,-0.5029,-0.5035,-0.5036,-0.504,-0.5038,-0.5037,-0.5039,-0.5052,-0.5052,-0.5035,-0.5035,-0.5035,-0.5035,-0.5035,-0.5035,-0.4938,-0.4939,-0.4946,-0.4951,-0.4958,-0.4962,-0.4966,-0.4971,-0.4978,-0.4984,-0.4989,-0.4996,-0.5005,-0.5013,-0.5019,-0.5022,-0.5023,-0.5019,-0.5023,-0.5035,-0.5038,-0.5039,-0.5039,-0.502,-0.502,-0.501,-0.501,-0.501]}]]